Goodland, KS

1:44 PM MST on December 06, 2019 (GMT -0700)
Renner-Goodland Municipal

Weather History for KGLD - September, 2019

Change the Weather History Date:

Monday, September 16, 2019

  Actual Average Record
Temperature  
Mean Temperature 78 °F 64 °F  
Max Temperature 89 °F 79 °F 98 °F (1955)
Min Temperature 66 °F 50 °F 34 °F (1951)
Degree Days  
Heating Degree Days 0 4  
Month to date heating degree days 2 31  
Since 1 July heating degree days 2 43  
Cooling Degree Days 13 3  
Month to date cooling degree days 138 75  
Year to date cooling degree days 984 908  
Growing Degree Days 28 (Base 50)    
Moisture  
Dew Point 54 °F    
Average Humidity 49    
Maximum Humidity 68    
Minimum Humidity 29    
Precipitation  
Precipitation 0.00 in 0.04 in 1.12 in (1958)
Month to date precipitation 0.36 0.68  
Year to date precipitation 21.22 16.58  
Snow  
Snow 0.00 in 0.00 in - ()
Month to date snowfall 0.0 0.1  
Since 1 July snowfall 0.0 0.1  
Since 1 September snowfall 0.0 0.1  
Snow Depth 0.00 in    
Sea Level Pressure  
Sea Level Pressure 29.82 in    
Wind  
Wind Speed 19 mph (North)    
Max Wind Speed 35 mph    
Max Gust Speed 49 mph    
Visibility 10 miles    
Events      
T = Trace of Precipitation, MM = Missing Value Source: NWS Daily Summary

Daily Weather History Graph

Daily Weather History Graph

Search for Another Location

Airport or City:

Astronomy

Sep. 16, 2019 Rise Set
Actual Time 6:28 AM MDT 6:53 PM MDT
Civil Twilight 6:01 AM MDT 7:20 PM MDT
Nautical Twilight 5:30 AM MDT 7:52 PM MDT
Astronomical Twilight 4:57 AM MDT 8:24 PM MDT
Moon 8:30 PM MDT (9/16) 8:37 AM MDT (9/16)
Length of Visible Light 13h 18m
Length of Day
12h 25m
Waning Gibbous, 94% of the Moon is Illuminated
Sep 16
Waning Gibbous
Sep 21
Last Quarter
Sep 28
New
Oct 5
First Quarter
Oct 13
Full

Hourly Weather History & Observations

Time (MDT) Temp. Heat Index Dew Point Humidity Pressure Visibility Wind Dir Wind Speed Gust Speed Precip Events Conditions
12:53 AM 66.9 °F - 55.9 °F 68% 29.88 in 10.0 mi South 10.4 mph - N/A   Clear
1:53 AM 70.0 °F - 55.0 °F 59% 29.88 in 10.0 mi South 12.7 mph - N/A   Clear
3:53 AM 71.1 °F - 53.1 °F 53% 29.87 in 10.0 mi South 13.8 mph - N/A   Clear
4:53 AM 68.0 °F - 53.1 °F 59% 29.87 in 10.0 mi South 12.7 mph - N/A   Clear
5:53 AM 66.9 °F - 53.1 °F 61% 29.87 in 10.0 mi South 13.8 mph - N/A   Clear
6:53 AM 66.0 °F - 53.1 °F 63% 29.90 in 10.0 mi South 15.0 mph - N/A   Clear
7:53 AM 68.0 °F - 54.0 °F 61% 29.89 in 10.0 mi South 15.0 mph - N/A   Clear
8:53 AM 73.9 °F - 54.0 °F 50% 29.88 in 10.0 mi South 21.9 mph 33.4 mph N/A   Clear
9:53 AM 78.1 °F - 55.9 °F 46% 29.88 in 10.0 mi South 25.3 mph 33.4 mph N/A   Clear
10:53 AM 82.9 °F 81.9 °F 54.0 °F 37% 29.83 in 10.0 mi South 29.9 mph 43.7 mph N/A   Clear
11:53 AM 87.1 °F 85.3 °F 55.0 °F 33% 29.81 in 10.0 mi South 29.9 mph 43.7 mph N/A   Clear
12:53 PM 88.0 °F 85.9 °F 54.0 °F 31% 29.79 in 10.0 mi South 27.6 mph 47.2 mph N/A   Clear
2:53 PM 89.1 °F 86.9 °F 54.0 °F 30% 29.75 in 10.0 mi South 28.8 mph 42.6 mph N/A   Partly Cloudy
3:53 PM 86.0 °F 84.0 °F 53.1 °F 32% 29.74 in 10.0 mi South 27.6 mph 40.3 mph N/A   Partly Cloudy
4:53 PM 86.0 °F 84.2 °F 54.0 °F 33% 29.75 in 10.0 mi South 20.7 mph 40.3 mph N/A   Clear
5:53 PM 84.0 °F 82.6 °F 54.0 °F 35% 29.76 in 10.0 mi South 20.7 mph 39.1 mph N/A   Clear
6:53 PM 79.0 °F - 54.0 °F 42% 29.77 in 10.0 mi South 18.4 mph 25.3 mph N/A   Clear
7:53 PM 75.9 °F - 53.1 °F 45% 29.79 in 10.0 mi South 15.0 mph - N/A   Clear
8:53 PM 73.0 °F - 53.1 °F 49% 29.80 in 10.0 mi South 12.7 mph - N/A   Clear
9:53 PM 70.0 °F - 53.1 °F 55% 29.81 in 10.0 mi South 11.5 mph - N/A   Clear
10:53 PM 69.1 °F - 53.1 °F 57% 29.80 in 10.0 mi South 11.5 mph - N/A   Clear
11:53 PM 71.1 °F - 54.0 °F 55% 29.78 in 10.0 mi South 16.1 mph - N/A   Clear